Starlink 11636

operational
NORAD ID: 63194 Int'l Des: 2025-048 Owner: SPXS Country: US Constellation: starlink
LEOCIRCULAR

Starlink 11636について

説明を読み込み中...

リアルタイム位置

3D地球を読み込み中...

次回通過

高度履歴

Altitude vs Time

uPlot chart will show altitude changes over time

軌道要素

1 63194U 25048M 26095.23124495 .00276377 00000-0 20903-2 0 9992
2 63194 42.9985 160.0716 0002040 216.9979 143.0748 15.70796874 62696
Epoch: Apr 5, 2026 • Age: 12 hours

現在のステータス

高度 367.8 km
速度 7.69 km/s
衛星直下点 -41.14°S, 7.26°W
打ち上げ日 Mar 13, 2025
運用期間 1 years
タイプ internet

技術仕様

分類 Payload
質量 960.00 kg
乾燥質量 910.00 kg
総質量 960.00 kg
長さ 0.30 m
直径 4.10 m
スパン 29.00 m
形状 Box + pan
製造者 SPXS
バスタイプ Starlink V2MD
フェーズステータス In Orbit
所有者/国 SPXS/US

大規模コンステレーション

Loading constellations...